Temperature
16 17 17 17 17 17 18 20 22 21 22 21 21 21 20 19 19 16 15 15 15 15 15 14 14 14 14 14 13 13 14 14 14 14 14 14 14 14 14 13 13 13 13 13 13 14 14 14 14
16 16 16 17 17 17 19 20 21 21 21 20 20 20 20 18 16 15 14 14 14 14 14 14 14 14 14 13 13 13 13 13 13 13 13 13 13 13 13 13 13 13 13 13 13 13 13 13 13
15 16 17 17 17 18 19 21 20 20 20 20 19 19 19 17 15 15 14 14 14 14 14 14 14 13 13 13 13 13 13 13 13 13 13 13 13 13 13 13 13 13 13 13 13 13 13 13 13
15 16 17 17 17 19 20 20 19 19 19 19 19 18 16 15 15 15 14 14 14 13 13 14 13 13 13 13 13 13 13 13 13 13 13 13 13 13 13 13 13 13 13 13 12 12 13 13 13
15 16 16 16 17 19 20 20 20 19 19 19 19 17 15 14 14 14 14 13 13 13 13 13 13 13 13 13 13 12 12 12 12 12 12 12 12 12 12 12 12 12 12 12 12 12 12 12 12
15 17 16 16 18 19 19 20 20 20 19 19 19 17 14 14 14 14 13 13 13 13 13 13 13 13 13 12 12 12 12 12 12 12 12 12 12 12 12 12 12 12 12 12 12 12 12 12 12
15 15 16 17 18 18 19 20 19 19 18 18 18 17 14 13 13 13 13 13 13 12 12 12 12 12 12 12 12 12 12 12 12 12 12 12 12 11 11 11 11 11 11 11 11 11 11 11 11
15 15 16 17 18 18 19 19 19 19 18 18 18 17 14 13 13 13 12 12 12 12 12 12 12 12 12 12 12 11 11 11 11 11 11 11 11 11 11 11 11 11 11 11 11 11 11 11 11
15 14 15 16 17 18 18 18 18 17 17 16 16 15 15 14 13 12 12 12 11 11 11 11 11 11 11 11 11 11 11 11 11 11 11 11 11 11 11 11 11 11 11 11 11 10 10 10 10
14 13 15 17 17 17 17 17 16 16 16 15 14 14 13 13 12 12 11 11 11 11 11 11 11 11 11 11 11 11 11 11 10 11 11 11 10 10 10 10 10 10 10 10 10 10 10 10 10
14 14 15 16 16 16 16 16 15 15 14 15 14 12 12 12 12 11 11 11 11 11 11 11 11 11 11 11 11 10 10 10 10 10 10 10 10 10 10 10 10 10 10 10 10 10 10 9 9
14 14 15 15 14 15 15 15 14 15 14 14 14 13 12 12 11 11 11 11 11 10 10 11 11 10 10 10 10 10 10 10 10 10 10 10 10 10 9 9 9 9 9 9 9 9 9 9 9
13 13 14 13 13 14 14 14 14 14 14 14 13 12 12 11 11 11 10 10 10 10 10 10 10 10 10 10 10 10 10 10 9 9 9 9 9 9 9 9 9 9 9 9 9 9 9 9 8
13 13 13 13 13 13 13 13 13 13 13 13 12 12 11 11 11 10 10 10 9 10 10 10 10 10 10 10 10 9 9 9 9 9 9 9 9 9 9 9 9 9 8 8 8 8 8 8 8
12 11 12 12 12 12 12 11 12 13 13 12 11 11 10 10 10 10 9 9 9 9 9 10 9 9 9 9 9 9 9 9 9 9 8 8 8 8 8 8 8 8 8 8 8 8 8 8 8
12 11 11 12 12 12 11 11 12 12 12 11 11 10 10 10 9 9 9 9 9 9 9 9 9 9 9 9 9 9 8 8 8 8 8 8 8 8 8 8 8 8 7 7 7 7 7 7 7
11 10 11 11 12 11 11 10 11 11 11 11 10 10 9 9 9 9 8 8 8 8 8 9 9 9 8 8 8 8 8 8 8 8 8 8 7 7 7 7 7 7 7 7 7 7 7 6 6
10 10 11 11 11 11 10 10 10 11 11 11 10 10 9 9 8 8 8 8 8 8 8 8 8 8 8 8 8 8 7 7 7 7 7 7 7 7 7 7 7 7 7 6 6 6 6 6 6
11 11 11 11 11 11 10 10 10 10 10 9 9 9 8 8 8 7 7 7 7 7 7 8 8 7 7 7 7 7 7 7 7 7 7 7 7 7 7 6 6 6 6 6 6 5 6 5 5
10 10 10 11 10 10 9 9 10 9 9 9 8 8 7 7 7 7 7 6 6 7 7 7 7 7 6 7 7 7 6 6 6 6 6 6 6 6 6 6 6 6 6 5 5 5 5 5 5
9 9 9 9 9 9 8 8 9 9 9 8 8 7 7 6 6 6 6 6 6 6 6 6 6 6 6 6 6 6 6 6 6 6 6 6 6 6 6 6 6 5 5 5 5 5 5 5 4
8 9 9 9 7 7 8 6 8 8 8 7 7 6 6 5 5 5 5 5 5 5 5 5 5 5 6 5 5 5 5 5 5 5 6 5 5 5 5 5 5 5 5 5 5 5 4 4 4
8 9 8 8 7 7 7 7 7 8 7 6 6 6 5 5 4 4 4 4 4 4 5 5 5 5 5 5 5 5 5 5 5 5 5 5 5 5 5 5 5 5 4 5 4 4 4 4 4
8 7 7 7 6 5 7 7 7 7 7 6 6 5 5 4 4 3 3 3 4 4 4 4 4 4 4 4 4 4 4 4 4 4 4 5 4 4 4 4 4 4 4 4 4 4 4 3 3
7 6 5 5 5 6 8 7 6 6 6 6 5 5 4 3 3 3 3 3 3 3 3 3 3 4 4 4 4 4 4 4 4 4 4 4 4 4 4 4 4 4 4 4 4 3 3 3 3
6 6 5 5 6 6 7 6 5 5 4 5 5 4 4 3 2 2 2 2 2 2 3 3 3 3 3 3 3 3 3 3 3 3 3 3 4 4 3 3 3 3 3 3 3 3 3 3 3
5 5 6 5 5 5 5 6 5 4 3 3 3 3 2 2 2 2 1 1 1 2 2 2 2 2 2 2 2 2 2 2 2 2 3 3 3 3 3 3 3 3 3 3 2 2 2 2 2
5 5 4 4 4 5 5 6 4 3 3 2 2 1 1 1 1 1 1 1 1 1 1 1 1 1 1 1 1 1 2 1 2 2 2 2 2 2 2 2 2 2 2 2 2 2 2 2 1
4 4 4 4 4 4 4 4 4 3 2 1 1 1 1 0 0 0 0 0 1 1 1 1 1 1 1 1 1 1 1 1 1 1 1 1 1 1 2 2 2 2 2 2 1 1 1 1 1
4 4 3 3 3 4 3 3 3 2 1 1 0 0 -0 -0 -0 -0 -0 -0 -0 -0 0 0 0 0 0 0 0 0 0 1 1 1 1 1 1 1 1 1 1 1 1 1 1 1 1 1 1
Wind_Speed
8 10 7 3 3 6 10 7 5 2 1 3 5 4 3 3 3 6 4 6 11 13 15 14 14 14 14 14 15 15 14 14 14 14 14 14 14 14 14 15 15 15 16 16 17 17 17 17 17
8 6 4 3 5 8 8 7 6 2 3 4 4 2 2 4 6 8 5 7 11 13 15 14 15 15 15 14 15 14 14 14 14 13 13 14 14 14 14 14 14 15 15 16 16 17 17 17 16
8 6 4 4 7 9 7 2 2 2 4 3 2 2 2 4 5 5 6 9 11 12 15 15 16 15 15 15 15 14 14 14 13 13 13 13 14 14 14 14 15 15 15 16 16 16 16 16 16
4 4 4 7 13 10 7 2 2 3 3 2 3 3 3 4 4 6 9 9 11 12 15 16 16 16 15 15 15 14 14 13 13 13 13 13 13 14 14 15 15 15 15 16 16 16 16 16 15
4 4 6 10 14 9 5 2 2 2 4 4 4 3 4 3 8 9 8 9 10 11 14 16 16 15 15 15 15 14 13 13 13 13 13 13 13 14 14 15 15 15 15 15 16 16 16 15 15
4 4 7 12 13 9 6 4 4 4 3 3 4 3 4 5 7 8 7 8 9 10 12 15 16 15 15 15 14 14 13 13 12 12 12 13 13 14 14 14 15 15 15 15 15 15 15 15 15
5 6 10 12 10 8 7 4 4 3 3 4 3 3 6 6 7 7 7 8 9 10 11 12 13 13 14 14 14 13 13 13 12 12 12 13 13 13 13 14 14 15 15 15 15 15 15 15 15
4 5 10 11 10 8 5 4 3 2 2 1 1 2 4 7 8 7 7 7 8 8 9 9 11 12 11 12 13 13 13 13 13 13 13 13 13 13 13 13 14 15 15 14 14 14 15 15 15
5 6 10 9 7 5 2 2 1 2 1 1 2 3 7 13 11 9 7 7 7 7 7 8 9 10 11 11 12 13 13 13 12 12 13 12 11 11 11 13 14 14 14 13 13 14 14 14 14
5 8 10 6 5 3 2 2 1 1 2 2 2 6 10 11 9 10 9 9 9 8 7 7 8 8 9 10 10 11 10 11 10 10 11 11 10 10 12 14 14 13 13 12 12 12 11 11 11
6 7 6 6 5 4 2 2 2 3 4 3 3 8 9 9 9 8 9 9 9 8 7 7 7 8 8 7 8 7 8 9 9 10 10 10 10 10 11 10 10 11 11 9 9 9 9 10 10
8 7 6 6 4 4 4 3 4 6 4 2 3 8 9 8 8 9 8 8 8 8 7 6 7 7 7 7 7 7 6 6 7 8 9 9 7 7 7 7 8 8 8 7 7 8 10 11 12
10 7 6 5 4 5 5 6 6 7 3 1 4 6 8 8 8 6 7 6 7 7 7 6 6 6 6 6 6 6 6 7 7 7 8 9 7 5 6 6 7 7 7 6 7 8 9 9 10
4 5 6 6 6 5 6 8 7 6 3 3 5 5 7 8 8 7 6 6 6 7 7 6 6 6 6 5 5 5 6 7 7 7 8 9 8 7 6 6 6 6 7 7 7 8 8 8 9
3 5 7 8 7 4 4 9 10 5 4 5 6 6 6 6 6 7 7 7 7 6 7 6 6 7 6 6 6 6 7 8 7 6 8 9 8 8 7 6 5 6 7 8 9 9 9 7 7
5 6 6 6 6 5 5 10 5 5 6 6 6 6 6 6 6 6 6 6 6 6 6 7 6 6 6 5 5 5 6 7 6 7 8 8 9 8 7 5 5 7 8 7 6 5 5 5 5
6 6 7 5 7 5 7 9 3 4 7 7 7 6 6 5 5 6 6 6 6 6 6 6 6 6 5 5 5 5 6 6 6 7 7 8 8 9 8 6 6 8 7 5 5 4 4 5 5
4 7 7 7 6 6 8 10 6 5 5 6 6 6 6 5 5 4 5 5 6 6 6 6 6 6 5 5 4 4 4 4 5 5 6 8 7 8 8 7 7 7 5 4 4 5 5 4 5
7 8 9 6 2 5 9 11 8 6 6 6 5 5 5 5 4 3 3 4 4 5 6 6 7 6 5 5 5 5 5 4 4 4 6 7 7 7 7 6 6 5 5 5 5 5 6 4 4
9 10 9 5 1 4 8 11 9 6 7 5 5 5 4 3 3 3 3 3 4 5 5 6 6 6 6 5 4 4 4 4 4 4 6 8 8 7 7 7 6 5 5 6 6 6 4 3 2
9 8 7 5 5 5 5 8 7 4 4 3 2 2 2 3 3 3 3 3 3 4 4 4 5 6 5 5 4 4 3 3 3 4 4 6 7 7 7 7 6 6 5 6 6 6 5 4 2
7 4 6 5 4 5 4 6 6 5 5 4 2 1 1 0 1 2 3 3 3 4 4 4 5 5 5 5 6 7 6 5 5 5 5 6 7 7 8 7 7 6 5 6 6 5 4 5 4
4 5 6 6 6 6 6 6 5 6 5 4 3 2 1 1 1 2 2 2 2 3 4 4 4 5 5 5 5 6 6 4 4 5 6 5 5 7 8 8 7 6 6 6 6 5 5 4 4
3 4 5 4 3 6 8 7 5 4 4 3 2 1 1 1 1 1 0 0 0 1 3 4 4 4 5 5 5 5 6 6 6 6 6 5 4 5 6 7 6 6 5 6 6 5 6 4 4
2 1 1 2 4 6 4 5 4 2 2 2 2 1 1 2 1 1 1 1 1 0 2 4 5 4 5 5 5 5 5 6 7 7 6 6 4 4 6 6 6 6 5 6 6 5 5 5 5
4 3 2 3 4 3 3 6 3 3 4 4 3 2 2 2 1 0 2 2 2 2 1 3 4 4 5 5 5 4 4 4 4 5 5 6 5 4 6 6 6 6 6 6 6 4 4 4 4
2 4 2 3 4 4 4 2 1 3 3 4 3 3 2 1 2 1 1 1 2 2 1 2 3 3 4 4 4 4 4 4 4 4 5 5 4 4 5 6 6 6 6 6 6 5 5 4 4
2 1 1 2 3 4 5 5 3 2 2 2 3 3 3 3 3 2 0 0 0 0 0 0 2 3 3 4 4 4 4 4 4 4 5 4 4 5 5 5 6 6 6 6 6 5 5 5 4
3 3 3 3 3 3 4 3 1 3 2 2 3 3 3 3 2 2 1 0 0 1 0 0 1 2 3 4 3 3 4 4 4 4 4 4 4 5 5 6 6 6 6 6 6 6 6 6 5
2 3 3 3 4 4 3 5 3 5 4 4 4 4 4 4 3 2 2 1 1 1 0 0 1 2 3 4 3 3 3 4 4 4 4 4 5 5 5 5 5 6 6 6 7 7 7 7 7
Wind_Direction
275 252 241 246 239 235 239 238 248 238 68 33 24 18 19 12 40 112 142 123 118 127 131 134 130 127 121 118 114 108 105 102 98 94 90 88 86 86 84 82 81 78 77 75 74 73 72 72 70
266 248 243 234 235 239 238 220 228 230 104 79 50 11 23 60 79 106 128 120 124 128 131 134 131 128 124 119 115 111 107 103 98 95 92 89 88 87 86 84 83 80 78 77 75 74 72 71 69
255 244 236 226 232 237 244 209 161 123 110 121 102 23 30 71 97 110 125 131 127 126 129 133 132 130 126 121 118 114 110 106 101 96 94 90 88 87 85 84 83 81 80 78 77 75 73 71 68
234 219 241 240 242 237 245 243 75 118 126 136 129 108 84 51 67 107 128 134 129 128 129 134 134 131 128 124 121 117 113 109 105 101 98 95 91 88 86 85 84 83 81 80 78 75 72 71 66
231 228 227 237 243 245 253 209 208 204 177 174 169 157 104 76 93 111 128 131 127 128 129 136 136 133 131 127 123 120 115 111 106 103 101 99 95 92 88 87 88 86 84 81 78 75 73 70 64
227 230 231 235 240 233 237 233 225 224 194 175 179 173 122 114 110 117 122 123 122 124 127 133 136 134 132 130 126 122 118 113 109 106 103 100 98 95 92 91 91 88 85 83 80 77 75 70 64
236 236 242 248 246 237 227 219 231 226 204 193 195 160 134 137 116 121 119 116 113 117 122 128 133 132 131 130 127 124 121 118 114 110 105 101 99 98 95 93 92 89 88 85 81 77 75 70 64
252 259 248 247 246 241 214 212 230 231 226 171 220 168 148 143 130 125 118 115 114 116 120 126 129 130 129 130 130 125 123 119 116 112 108 103 102 100 98 96 94 91 90 87 82 79 75 69 63
251 242 243 243 248 246 182 229 246 26 154 190 41 50 109 129 136 134 129 128 130 128 127 127 125 126 128 129 130 126 124 121 117 115 113 108 102 99 100 100 97 93 91 88 86 82 77 69 62
223 233 241 258 282 279 241 242 234 191 224 206 106 83 111 130 143 153 156 156 153 149 144 138 135 133 132 133 128 128 128 125 120 118 115 107 104 101 100 100 99 96 94 91 88 82 75 70 61
222 242 259 275 306 306 263 255 244 223 240 230 179 141 138 150 158 164 166 160 155 148 142 144 144 139 135 129 130 125 126 126 124 124 120 115 107 101 100 99 97 97 95 90 87 79 73 69 62
236 252 272 268 294 292 264 244 248 241 256 345 130 146 152 166 172 174 169 162 154 151 149 147 144 141 135 132 133 131 126 121 121 132 129 117 105 101 102 100 103 100 95 91 83 77 73 69 64
240 250 263 276 278 279 281 253 247 243 243 62 116 147 169 178 183 174 162 154 152 153 152 154 150 147 143 138 138 132 128 129 126 134 128 122 113 108 104 100 100 98 100 93 83 80 75 70 66
254 258 257 258 254 255 258 262 252 238 192 154 153 180 184 186 181 172 165 166 165 160 158 156 153 148 144 146 143 136 127 125 124 123 128 127 125 118 112 105 100 97 100 97 91 86 81 75 72
249 256 253 230 228 226 247 257 237 215 181 176 178 191 195 195 186 179 177 172 170 165 159 161 160 149 148 149 145 135 135 132 128 126 128 128 127 122 114 111 107 106 108 103 96 89 85 81 76
226 233 238 210 210 202 222 251 227 177 185 198 191 193 198 194 191 182 177 172 170 166 162 166 163 155 151 146 140 136 136 133 129 133 132 130 133 129 119 116 115 118 115 108 106 102 98 91 85
212 236 241 227 205 199 224 257 228 210 202 205 201 198 195 195 195 188 183 175 170 169 165 164 160 160 158 144 138 132 132 130 132 134 133 135 138 137 127 123 121 122 117 114 119 111 111 106 95
237 247 249 236 209 215 235 252 243 212 207 209 199 195 193 198 201 185 175 172 169 167 166 164 161 159 152 143 130 131 135 132 130 134 139 142 141 140 133 130 130 124 121 122 122 120 110 111 110
281 269 267 271 225 229 244 256 254 221 218 223 210 196 199 205 192 167 160 159 161 163 169 169 166 165 161 161 157 158 165 161 154 142 144 146 144 140 137 136 136 132 137 141 135 128 121 117 115
266 271 273 283 297 271 262 262 258 235 213 208 209 203 202 204 185 172 167 165 168 175 178 174 171 170 175 176 170 161 160 162 156 148 145 150 149 144 142 143 146 142 142 143 142 138 135 147 148
260 258 270 280 302 259 269 274 236 223 185 163 167 191 186 182 185 179 178 179 169 174 181 185 182 178 178 171 156 141 135 136 153 165 164 158 156 154 154 154 152 151 155 161 159 160 154 164 192
262 281 281 274 268 258 215 268 246 195 181 182 202 207 176 152 191 204 195 189 190 188 185 187 185 180 177 171 170 169 178 178 183 175 165 163 164 162 162 162 160 160 162 167 172 171 165 161 172
257 302 280 262 256 270 235 241 250 176 197 203 198 217 188 178 189 209 226 204 195 188 184 186 182 183 178 178 177 180 185 178 155 150 158 166 167 167 166 165 163 166 168 169 172 173 173 174 174
265 285 273 248 238 249 222 219 253 190 192 174 170 210 121 124 161 214 237 96 107 175 178 177 182 185 181 180 185 187 184 172 164 166 169 170 170 166 168 170 170 172 173 175 175 177 176 179 177
242 234 267 231 220 240 195 212 235 139 80 108 147 184 114 101 103 198 194 200 219 202 177 178 181 183 181 182 189 193 190 176 175 175 176 171 173 180 181 176 175 178 179 177 174 174 176 175 173
225 214 195 228 239 271 208 220 208 110 72 59 67 65 67 65 26 228 189 193 215 224 196 183 183 184 181 184 192 190 189 185 182 176 175 178 182 186 180 177 178 177 175 176 173 173 180 181 178
213 227 272 293 290 275 247 239 217 91 52 40 43 45 40 20 351 327 178 187 210 225 227 200 188 183 182 187 187 188 187 188 187 180 176 179 176 176 176 179 179 177 178 178 176 178 181 178 182
266 250 219 220 252 262 257 242 230 200 303 355 17 13 2 1 351 334 242 190 251 196 331 315 184 189 185 187 191 195 193 192 188 182 177 176 175 172 177 182 181 178 179 178 178 176 176 174 183
186 210 227 233 237 249 269 273 45 110 69 30 2 0 357 350 336 330 343 59 31 45 164 245 210 191 192 193 192 194 192 185 185 182 182 180 177 178 181 182 184 180 182 183 180 182 178 180 185
189 216 206 214 243 234 258 271 47 71 46 30 10 2 5 5 3 7 5 34 43 21 335 268 273 210 198 196 192 193 189 183 182 182 184 182 184 186 185 184 186 188 184 184 184 187 185 186 189
Height
1492 1494 1497 1499 1501 1500 1494 1485 1479 1480 1480 1483 1485 1486 1488 1492 1496 1507 1506 1506 1507 1508 1511 1513 1516 1518 1520 1522 1524 1525 1527 1528 1530 1531 1532 1533 1534 1535 1536 1537 1537 1538 1539 1540 1540 1541 1542 1542 1543
1492 1494 1498 1498 1499 1501 1490 1480 1480 1480 1482 1485 1487 1488 1490 1494 1498 1501 1503 1505 1507 1508 1511 1513 1516 1518 1520 1522 1524 1526 1527 1529 1530 1532 1533 1534 1535 1536 1537 1537 1538 1539 1540 1540 1541 1542 1543 1544 1544
1491 1494 1497 1494 1493 1492 1485 1477 1478 1480 1482 1485 1488 1490 1493 1497 1499 1500 1502 1505 1507 1509 1511 1513 1516 1518 1520 1522 1524 1526 1528 1529 1531 1532 1534 1535 1536 1536 1537 1538 1539 1540 1541 1541 1542 1543 1544 1545 1546
1491 1495 1494 1492 1487 1480 1478 1478 1478 1480 1484 1486 1489 1492 1495 1498 1498 1499 1502 1504 1507 1509 1511 1513 1516 1518 1520 1523 1525 1527 1528 1530 1531 1533 1534 1535 1536 1537 1538 1539 1539 1540 1541 1542 1543 1544 1545 1546 1547
1491 1492 1492 1489 1482 1477 1476 1477 1479 1480 1483 1486 1488 1491 1495 1497 1497 1499 1502 1504 1506 1508 1510 1513 1515 1518 1520 1523 1525 1527 1529 1530 1532 1533 1534 1535 1536 1537 1538 1539 1540 1541 1542 1543 1544 1545 1546 1547 1548
1490 1487 1489 1486 1478 1475 1476 1477 1479 1480 1482 1485 1488 1491 1495 1497 1497 1499 1502 1504 1506 1508 1510 1513 1515 1518 1520 1522 1525 1527 1528 1530 1532 1533 1534 1535 1536 1537 1538 1539 1540 1541 1542 1543 1544 1545 1547 1548 1549
1487 1485 1483 1478 1476 1475 1475 1477 1478 1479 1482 1485 1487 1490 1494 1496 1497 1499 1501 1504 1506 1508 1510 1512 1515 1517 1520 1522 1524 1527 1528 1530 1531 1533 1534 1535 1536 1538 1539 1540 1541 1542 1543 1544 1545 1546 1547 1548 1549
1483 1483 1478 1475 1474 1473 1473 1475 1477 1479 1482 1484 1486 1488 1491 1494 1495 1498 1500 1503 1505 1507 1509 1511 1514 1516 1519 1522 1524 1526 1528 1530 1531 1533 1534 1535 1536 1538 1539 1540 1541 1542 1543 1544 1545 1546 1548 1549 1550
1482 1484 1478 1473 1472 1471 1472 1475 1477 1479 1481 1484 1485 1487 1489 1491 1493 1496 1499 1502 1504 1506 1509 1511 1513 1516 1518 1521 1523 1525 1527 1529 1531 1532 1533 1535 1536 1537 1539 1540 1541 1542 1543 1544 1545 1547 1548 1549 1550
1479 1479 1472 1470 1470 1470 1472 1474 1477 1479 1481 1483 1485 1486 1487 1489 1492 1494 1496 1499 1502 1504 1507 1509 1512 1514 1517 1519 1521 1524 1526 1528 1529 1531 1532 1534 1535 1537 1538 1539 1541 1542 1543 1544 1546 1547 1548 1549 1550
1474 1473 1471 1471 1471 1471 1473 1475 1477 1478 1481 1482 1483 1484 1486 1488 1490 1493 1495 1497 1500 1503 1505 1508 1510 1513 1515 1517 1520 1522 1524 1526 1528 1530 1532 1533 1535 1536 1537 1539 1541 1542 1543 1544 1545 1547 1548 1549 1550
1471 1470 1471 1471 1472 1472 1473 1474 1476 1477 1478 1480 1481 1482 1483 1486 1489 1491 1493 1496 1499 1501 1503 1506 1508 1511 1513 1516 1518 1520 1522 1524 1526 1528 1530 1532 1533 1535 1537 1538 1540 1541 1543 1544 1545 1546 1547 1548 1549
1469 1470 1471 1471 1471 1472 1473 1473 1475 1475 1477 1478 1479 1481 1482 1484 1487 1490 1492 1494 1497 1499 1501 1504 1506 1509 1512 1514 1516 1518 1520 1522 1524 1527 1529 1530 1532 1534 1535 1537 1539 1540 1542 1543 1545 1546 1547 1548 1549
1468 1469 1470 1470 1471 1472 1473 1472 1473 1472 1475 1476 1477 1479 1481 1483 1485 1488 1490 1492 1494 1496 1499 1502 1505 1507 1509 1511 1514 1516 1518 1520 1523 1525 1527 1529 1531 1532 1534 1536 1538 1539 1541 1542 1544 1545 1546 1547 1548
1469 1470 1469 1468 1469 1470 1473 1471 1469 1470 1472 1474 1476 1478 1479 1481 1483 1485 1487 1489 1491 1494 1496 1499 1502 1504 1506 1509 1511 1513 1516 1518 1520 1523 1525 1527 1529 1531 1532 1534 1536 1538 1539 1541 1542 1544 1545 1546 1547
1468 1469 1469 1465 1467 1469 1474 1471 1466 1468 1470 1472 1474 1476 1478 1479 1481 1483 1485 1487 1489 1491 1494 1497 1499 1501 1504 1506 1508 1510 1513 1516 1518 1520 1522 1524 1527 1529 1530 1532 1534 1536 1538 1539 1541 1542 1543 1545 1546
1467 1468 1465 1464 1464 1466 1469 1467 1465 1466 1467 1469 1471 1473 1475 1477 1479 1481 1482 1484 1486 1488 1490 1493 1496 1498 1500 1503 1505 1508 1510 1513 1515 1518 1520 1522 1524 1526 1528 1530 1532 1534 1535 1537 1539 1541 1542 1543 1545
1466 1465 1461 1462 1461 1464 1466 1464 1463 1464 1465 1466 1468 1471 1473 1474 1476 1477 1479 1481 1483 1485 1487 1490 1492 1494 1497 1500 1502 1504 1507 1510 1512 1515 1517 1519 1521 1523 1525 1527 1529 1531 1533 1535 1537 1539 1540 1542 1543
1462 1462 1461 1458 1458 1461 1462 1461 1460 1461 1463 1464 1465 1467 1469 1471 1473 1474 1476 1478 1480 1481 1483 1486 1488 1490 1493 1495 1497 1500 1502 1506 1509 1511 1514 1516 1518 1520 1522 1524 1526 1528 1530 1532 1534 1536 1538 1539 1541
1461 1462 1460 1458 1459 1461 1460 1459 1456 1457 1459 1460 1462 1464 1466 1468 1470 1471 1473 1475 1476 1477 1480 1482 1484 1487 1489 1492 1494 1496 1499 1502 1505 1508 1510 1513 1515 1517 1519 1521 1523 1525 1527 1529 1531 1533 1535 1537 1539
1461 1462 1461 1462 1462 1460 1462 1460 1454 1454 1456 1459 1461 1462 1464 1465 1467 1468 1470 1471 1473 1474 1475 1478 1480 1483 1485 1488 1491 1493 1496 1498 1501 1504 1506 1509 1511 1513 1516 1518 1520 1522 1524 1526 1527 1530 1532 1533 1536
1463 1459 1460 1461 1466 1466 1463 1467 1452 1452 1455 1457 1459 1461 1462 1464 1465 1466 1467 1468 1469 1471 1473 1475 1477 1479 1482 1484 1486 1488 1491 1493 1496 1499 1502 1505 1507 1510 1512 1514 1516 1518 1521 1523 1524 1527 1529 1531 1533
1461 1459 1459 1460 1463 1466 1461 1465 1454 1450 1454 1455 1457 1459 1460 1462 1463 1463 1464 1465 1466 1468 1470 1471 1473 1476 1478 1480 1483 1485 1487 1490 1493 1496 1498 1501 1503 1506 1508 1510 1512 1514 1517 1519 1521 1523 1526 1528 1530
1460 1461 1459 1460 1464 1469 1457 1460 1452 1451 1450 1452 1454 1456 1458 1459 1460 1461 1461 1462 1463 1465 1466 1468 1470 1472 1474 1477 1479 1481 1483 1485 1488 1490 1493 1496 1499 1502 1504 1506 1508 1511 1513 1515 1517 1520 1522 1524 1526
1462 1466 1469 1469 1469 1461 1448 1454 1454 1450 1449 1450 1453 1454 1455 1456 1457 1457 1457 1458 1459 1461 1463 1464 1466 1468 1470 1473 1475 1477 1479 1481 1483 1486 1488 1491 1494 1497 1499 1502 1504 1506 1509 1511 1513 1515 1517 1519 1521
1463 1465 1471 1472 1465 1455 1449 1454 1453 1451 1451 1451 1452 1453 1453 1454 1454 1454 1454 1455 1457 1458 1459 1461 1463 1465 1467 1469 1471 1474 1476 1477 1479 1482 1484 1487 1489 1492 1495 1497 1500 1502 1505 1507 1509 1511 1513 1515 1517
1463 1464 1463 1466 1462 1462 1455 1451 1450 1450 1451 1451 1451 1452 1452 1452 1452 1452 1452 1453 1454 1455 1456 1458 1460 1461 1463 1465 1468 1470 1472 1473 1475 1478 1480 1483 1485 1487 1490 1492 1495 1498 1500 1502 1504 1506 1508 1510 1512
1463 1463 1467 1469 1468 1463 1453 1449 1452 1452 1451 1452 1452 1451 1451 1451 1450 1450 1451 1451 1452 1453 1454 1456 1457 1458 1460 1462 1464 1466 1468 1470 1472 1474 1476 1478 1480 1483 1485 1488 1490 1493 1495 1497 1500 1502 1504 1506 1508
1465 1466 1466 1465 1464 1465 1461 1456 1448 1450 1451 1452 1452 1451 1451 1450 1449 1449 1449 1449 1450 1451 1452 1453 1454 1455 1457 1458 1460 1462 1464 1466 1468 1470 1472 1474 1476 1478 1480 1483 1485 1488 1490 1492 1494 1497 1499 1501 1503
1461 1463 1466 1470 1466 1461 1463 1462 1450 1451 1451 1451 1451 1451 1450 1449 1448 1448 1448 1448 1448 1448 1449 1450 1451 1452 1453 1455 1457 1458 1460 1463 1464 1466 1468 1470 1472 1474 1476 1478 1481 1483 1485 1488 1490 1492 1494 1496 1498